sat.trackr.live / text

‹ back to catalog

STARLINK-33664

NORAD 63415 · 2025-065S

PAYLOAD ACTIVE UNKNOWN

§ Identity

Operator
Country
US
Launch date
2025-03-31
Launch site
AFETR
Launch vehicle
Mass (kg)
RCS (m²)

Purposes: comms

External: N2YO · Heavens-Above · Gunter

§ Orbital elements

Epoch: 2026-09-20T05:42:05.552064Z

Period
94.27 min
Inclination
43.0059°
Eccentricity
0.0001468
Mean motion
15.27584712 rev/d
Perigee alt
482.0 km
Apogee alt
484.0 km
Semi-major
6,861.2 km
B*
2.9935e-4
RAAN
88.3163°
Arg perigee
259.3280°
Mean anomaly
100.7407°
Rev number
8,259

§ Raw data

STARLINK-336641 63415U 25065S   26263.23756426  .00007985  00000+0  29935-3 0  99902 63415  43.0059  88.3163 0001468 259.3280 100.7407 15.27584712 82594

JSON: /api/v1/satellites/63415 · /tle

For live sub-satellite position, see the globe view (requires WebGL).

§ Visibility from observer

Set your observer location to see the next 7 days of passes ≥ 10°. The values pass through the URL so the page stays shareable.

No JS? Fill the form by hand. The geolocation button needs JavaScript.